Terminal Aerodrome Forecast
Issued by NWS Sterling, VA

Current Version | Previous Version | Graphics & Text | Print | Product List | Glossary On
Versions: 1 2 3 4 5 6 7 8 9 10 11 12 13 14 15 16 17 18 19 20 21 22 23
000
FTUS41 KLWX 151100
TAFDCA
TAF
KDCA 151130Z 1512/1612 VRB03KT P6SM FEW040 SCT250
     FM151700 18005KT P6SM SCT050 SCT200
     FM160300 17005KT P6SM OVC050
     FM160800 25004KT P6SM BKN050
     FM161100 30005KT P6SM SCT050=

USA.gov is the U.S. government's official web portal to all federal, state and local government web resources and services.